Location: Boiro
(42.6475°N, 8.8834°W)
Time: 14:43:31
(UTC+02:00)

Explorer 7 - Pass Details

Date: 04 July 2022
Orbit: 482 x 668 km, 50.3° (Epoch: 15 August)

Event Time Altitude Azimuth Distance (km) Brightness Sun altitude
Rises 04:49:19 0° 300° (WNW) 2,977 10.6 -18.0°
Reaches altitude 10° 04:51:45 10° 304° (NW) 2,045 9.7 -17.8°
Maximum altitude 04:56:24 60° 24° (NNE) 714 7.6 -17.3°
Drops below altitude 10° 05:00:49 10° 106° (ESE) 1,933 9.8 -16.9°
Sets 05:03:03 0° 110° (ESE) 2,800 10.6 -16.6°
